TimeEDT,TemperatureF,Dew PointF,Humidity,Sea Level PressureIn,VisibilityMPH,Wind Direction,Wind SpeedMPH,Gust SpeedMPH,PrecipitationIn,Events,Conditions,WindDirDegrees,DateUTC
12:54 AM,64.9,53.1,65,30.28,10.0,Calm,Calm,-,N/A,,Clear,0,2013-06-22 04:54:00
1:54 AM,63.0,54.0,72,30.28,10.0,Calm,Calm,-,N/A,,Clear,0,2013-06-22 05:54:00
2:54 AM,62.1,55.0,78,30.26,10.0,Calm,Calm,-,N/A,,Clear,0,2013-06-22 06:54:00
3:54 AM,60.1,55.0,83,30.27,10.0,Calm,Calm,-,N/A,,Unknown,0,2013-06-22 07:54:00
4:54 AM,57.9,54.0,87,30.27,10.0,Calm,Calm,-,N/A,,Unknown,0,2013-06-22 08:54:00
5:54 AM,57.9,55.0,90,30.28,10.0,Calm,Calm,-,N/A,,Unknown,0,2013-06-22 09:54:00
6:54 AM,62.1,57.9,86,30.27,10.0,Calm,Calm,-,N/A,,Clear,0,2013-06-22 10:54:00
7:54 AM,68.0,61.0,78,30.27,10.0,Calm,Calm,-,N/A,,Unknown,0,2013-06-22 11:54:00
8:54 AM,71.1,61.0,70,30.28,10.0,WNW,3.5,-,N/A,,Clear,300,2013-06-22 12:54:00
9:54 AM,75.0,62.1,64,30.27,10.0,Variable,3.5,-,N/A,,Clear,0,2013-06-22 13:54:00
10:54 AM,77.0,62.1,60,30.26,10.0,South,4.6,-,N/A,,Clear,170,2013-06-22 14:54:00
11:54 AM,78.1,62.1,58,30.26,10.0,Variable,5.8,-,N/A,,Partly Cloudy,0,2013-06-22 15:54:00
12:54 PM,80.1,63.0,56,30.26,10.0,Variable,3.5,-,N/A,,Mostly Cloudy,0,2013-06-22 16:54:00
1:54 PM,81.0,63.0,54,30.25,10.0,SSE,5.8,-,N/A,,Scattered Clouds,160,2013-06-22 17:54:00
2:54 PM,82.9,64.0,53,30.22,10.0,SW,9.2,-,N/A,,Partly Cloudy,220,2013-06-22 18:54:00
3:54 PM,84.0,62.1,47,30.19,10.0,SW,9.2,-,N/A,,Clear,220,2013-06-22 19:54:00
4:54 PM,84.0,63.0,49,30.17,10.0,Variable,5.8,-,N/A,,Clear,0,2013-06-22 20:54:00
5:54 PM,82.9,63.0,51,30.16,10.0,SW,4.6,-,N/A,,Clear,220,2013-06-22 21:54:00
6:54 PM,82.0,63.0,52,30.14,10.0,Variable,5.8,-,N/A,,Clear,0,2013-06-22 22:54:00
7:54 PM,81.0,64.0,56,30.14,10.0,SSW,5.8,-,N/A,,Clear,210,2013-06-22 23:54:00
8:54 PM,79.0,64.9,62,30.15,10.0,SSW,5.8,-,N/A,,Clear,200,2013-06-23 00:54:00
9:54 PM,75.9,64.0,67,30.19,10.0,SW,6.9,-,N/A,,Clear,220,2013-06-23 01:54:00
10:54 PM,73.0,59.0,61,30.19,10.0,SW,9.2,-,N/A,,Clear,220,2013-06-23 02:54:00
11:54 PM,72.0,60.1,66,30.19,10.0,SSW,5.8,-,N/A,,Clear,200,2013-06-23 03:54:00